Location: Newark
(44.3681°N, 100.3364°W)
Time: 06:12:40
(UTC+00:00)

Courier 1B - All Passes

Search period start: 25 February 2020 00:00
Search period end: 06 March 2020 00:00
Orbit: 962 x 1209 km, 28.3° (Epoch: 24 February)

Date Brightness Start Highest point End Pass type
(mag) Time Alt. Az. Time Alt. Az. Time Alt. Az.
25 Feb - 01:45:43 10° SW 01:48:28 12° SSW 01:51:10 10° S visible
25 Feb - 19:15:13 10° SSE 19:15:51 10° SSE 19:16:28 10° SSE daylight
25 Feb - 21:03:31 10° SSW 21:08:50 20° SSE 21:14:02 10° SE daylight
25 Feb - 22:56:19 10° SW 23:01:59 23° S 23:07:27 10° SE daylight
26 Feb - 00:50:54 10° SW 00:54:59 16° SSW 00:58:56 10° SSE visible
26 Feb - 20:10:17 10° SSW 20:15:12 18° SSE 20:20:03 10° SE daylight
26 Feb - 22:02:31 10° SW 22:08:20 23° S 22:14:00 10° SE daylight
26 Feb - 23:56:33 10° SW 00:01:26 18° SSW 00:06:10 10° SSE daylight
27 Feb - 19:17:22 10° SSW 19:21:34 15° SSE 19:25:47 10° SE daylight
27 Feb - 21:08:52 10° SW 21:14:41 23° S 21:20:23 10° SE daylight
27 Feb - 23:02:26 10° SW 23:07:51 21° S 23:13:06 10° SE daylight
28 Feb - 00:59:00 10° SW 01:00:43 11° SSW 01:02:26 10° SSW visible
28 Feb - 18:24:58 10° S 18:27:59 13° SSE 18:31:01 10° SE daylight
28 Feb - 20:15:22 10° SW 20:21:01 22° S 20:26:37 10° SE daylight
28 Feb - 22:08:28 10° SW 22:14:13 23° S 22:19:49 10° SE daylight
29 Feb - 00:03:32 10° SW 00:07:13 14° SSW 00:10:48 10° S daylight
29 Feb - 19:22:02 10° SSW 19:27:22 20° SSE 19:32:41 10° ESE daylight
29 Feb - 21:14:38 10° SW 21:20:33 24° S 21:26:22 10° SE daylight
29 Feb - 23:08:58 10° SW 23:13:39 17° SSW 23:18:13 10° SSE daylight
01 Mar - 18:28:57 10° SSW 18:33:44 18° SSE 18:38:33 10° SE daylight
01 Mar - 20:20:56 10° SW 20:26:52 24° S 20:32:46 10° SE daylight
01 Mar - 22:14:45 10° WSW 22:20:03 20° SSW 22:25:14 10° SSE daylight
02 Mar - 17:36:13 10° S 17:40:08 15° SSE 17:44:05 10° SE daylight
02 Mar - 19:27:23 10° SW 19:33:12 23° S 19:39:01 10° SE daylight
02 Mar - 21:20:44 10° SW 21:26:24 22° S 21:32:01 10° SE daylight
02 Mar - 23:16:29 10° SW 23:19:23 12° SSW 23:22:16 10° S daylight
03 Mar - 16:44:16 10° S 16:46:34 12° SSE 16:48:55 10° SE daylight
03 Mar - 18:34:01 10° SW 18:39:32 21° S 18:45:08 10° SE daylight
03 Mar - 20:26:52 10° SW 20:32:44 23° S 20:38:35 10° SE daylight
03 Mar - 22:21:35 10° SW 22:25:49 15° SSW 22:30:01 10° SSE daylight
04 Mar - 17:40:51 10° SSW 17:45:54 19° SSE 17:51:03 10° SE daylight
04 Mar - 19:33:10 10° SW 19:39:03 24° S 19:44:59 10° SE daylight
04 Mar - 21:27:14 10° SW 21:32:13 18° SSW 21:37:10 10° SSE daylight
05 Mar - 16:47:57 10° SSW 16:52:18 16° SSE 16:56:45 10° SE daylight
05 Mar - 18:39:36 10° SW 18:45:23 23° S 18:51:16 10° SE daylight
05 Mar - 20:33:09 10° SW 20:38:34 21° SSW 20:44:00 10° SSE daylight
05 Mar - 22:30:27 10° SW 22:31:32 10° SSW 22:32:37 10° SSW daylight
